Location: Slemon Park
(46.4340°N, 63.8219°W)
Time: 03:57:17
(UTC-03:00)

ISS - All Passes

Search period start: 02 September 2014 00:00
Search period end: 12 September 2014 00:00
Orbit: 414 x 419 km, 51.6° (Epoch: 02 September)

Date Brightness Start Highest point End Pass type
(mag) Time Alt. Az. Time Alt. Az. Time Alt. Az.
02 Sep - 09:17:12 10° SE 09:17:44 10° SE 09:18:17 10° ESE daylight
02 Sep - 10:50:36 10° SW 10:53:53 63° SSE 10:57:12 10° ENE daylight
02 Sep - 12:27:37 10° W 12:30:46 38° NNW 12:33:56 10° ENE daylight
02 Sep - 14:04:55 10° WNW 14:08:01 34° N 14:11:06 10° ENE daylight
02 Sep - 15:41:40 10° WNW 15:45:01 89° SW 15:48:21 10° ESE daylight
02 Sep - 17:19:15 10° W 17:21:21 16° SW 17:23:27 10° S daylight
03 Sep - 10:02:17 10° SW 10:05:24 39° SE 10:08:33 10° ENE daylight
03 Sep - 11:38:53 10° W 11:42:07 47° NNW 11:45:22 10° ENE daylight
03 Sep - 13:16:16 10° WNW 13:19:19 32° N 13:22:22 10° ENE daylight
03 Sep - 14:53:07 10° WNW 14:56:26 63° NNE 14:59:45 10° ESE daylight
03 Sep - 16:30:10 10° W 16:32:58 25° SW 16:35:45 10° SSE daylight
04 Sep - 09:14:11 10° SSW 09:16:57 25° SE 09:19:45 10° E daylight
04 Sep - 10:50:10 10° WSW 10:53:29 64° NNW 10:56:48 10° ENE daylight
04 Sep - 12:27:33 10° WNW 12:30:36 32° N 12:33:39 10° ENE daylight
04 Sep - 14:04:33 10° WNW 14:07:48 47° NNE 14:11:02 10° E daylight
04 Sep - 15:41:22 10° WNW 15:44:31 39° SW 15:47:38 10° SE daylight
05 Sep - 08:26:28 10° S 08:28:33 16° SE 08:30:38 10° E daylight
05 Sep - 10:01:32 10° WSW 10:04:52 89° SSE 10:08:13 10° ENE daylight
05 Sep - 11:38:47 10° WNW 11:41:52 34° N 11:44:58 10° ENE daylight
05 Sep - 13:15:57 10° WNW 13:19:06 38° NNE 13:22:15 10° E daylight
05 Sep - 14:52:41 10° WNW 14:55:59 63° SSW 14:59:16 10° SE daylight
05 Sep - 16:31:32 10° WSW 16:32:08 10° SW 16:32:43 10° SW daylight
06 Sep - 09:13:00 10° SW 09:16:17 58° SSE 09:19:34 10° ENE daylight
06 Sep - 10:49:58 10° W 10:53:08 39° NNW 10:56:18 10° ENE daylight
06 Sep - 12:27:17 10° WNW 12:30:22 34° N 12:33:27 10° ENE daylight
06 Sep - 14:04:02 10° WNW 14:07:23 85° NNE 14:10:43 10° ESE daylight
06 Sep - 15:41:30 10° W 15:43:45 17° SW 15:45:59 10° S daylight
07 Sep - 08:24:39 10° SSW 08:27:44 36° SE 08:30:50 10° ENE daylight
07 Sep - 10:01:09 10° W 10:04:25 49° NNW 10:07:40 10° ENE daylight
07 Sep - 11:38:33 10° WNW 11:41:35 32° N 11:44:38 10° ENE daylight
07 Sep - 13:15:25 10° WNW 13:18:43 60° NNE 13:22:01 10° ESE daylight
07 Sep - 14:52:24 10° W 14:55:17 27° SW 14:58:08 10° SSE daylight
08 Sep - 07:36:31 10° SSW 07:39:13 23° SE 07:41:55 10° E daylight
08 Sep - 09:12:23 10° WSW 09:15:42 67° NNW 09:19:02 10° ENE daylight
08 Sep - 10:49:45 10° WNW 10:52:48 32° N 10:55:51 10° ENE daylight
08 Sep - 12:26:46 10° WNW 12:30:00 45° NNE 12:33:13 10° E daylight
08 Sep - 14:03:33 10° WNW 14:06:44 43° SW 14:09:54 10° SE daylight
09 Sep - 06:48:50 10° S 06:50:44 15° SE 06:52:39 10° E daylight
09 Sep - 08:23:41 10° WSW 08:27:01 84° SSE 08:30:22 10° ENE daylight
09 Sep - 10:00:53 10° WNW 10:04:00 35° N 10:07:06 10° ENE daylight
09 Sep - 11:38:05 10° WNW 11:41:13 37° NNE 11:44:22 10° E daylight
09 Sep - 13:14:48 10° WNW 13:18:07 68° SSW 13:21:26 10° SE daylight
09 Sep - 14:53:11 10° WSW 14:54:18 11° SW 14:55:26 10° SSW daylight
10 Sep - 07:35:07 10° SW 07:38:22 54° SSE 07:41:38 10° ENE daylight
10 Sep - 09:12:00 10° W 09:15:11 41° NNW 09:18:22 10° ENE daylight
10 Sep - 10:49:20 10° WNW 10:52:24 33° N 10:55:28 10° ENE daylight
10 Sep - 12:26:06 10° WNW 12:29:27 80° NNE 12:32:46 10° ESE daylight
10 Sep - 14:03:26 10° W 14:05:50 18° SW 14:08:12 10° S daylight
11 Sep - 06:46:43 10° SSW 06:49:45 33° SE 06:52:48 10° ENE daylight
11 Sep - 08:23:07 10° W 08:26:23 52° NNW 08:29:40 10° ENE daylight
11 Sep - 10:00:31 10° WNW 10:03:33 32° N 10:06:36 10° ENE daylight
11 Sep - 11:37:24 10° WNW 11:40:42 57° NNE 11:43:59 10° E daylight
11 Sep - 13:14:20 10° W 13:17:17 29° SW 13:20:12 10° SSE daylight
